When you browse on this site, cookies collect data to enhance your experience and personalize the content and advertising you see.
Visit our Privacy Policy to learn more. By continuing to use the site, you agree to this use of cookies and data.
  • In France
  • List of Countries
  • For 7 days
  • Water Temperature
  • Weather Map
  • Weather Widgets
  • user-avatar
    Login

    Hourly Weather Mutare

    Today, 5 June, Friday

    Time Temperature Precipitation Wind Pressure Humidity
    00:00 +11°C° 0 mm 1 mps 656 mmHg 92%
    01:00 +11°C° 0 mm 1 mps 656 mmHg 93%
    02:00 +10°C° 0 mm 1 mps 655 mmHg 94%
    03:00 +10°C° 0 mm 1 mps 655 mmHg 94%
    04:00 +10°C° 0 mm 1 mps 655 mmHg 94%
    05:00 +9°C° 0 mm 0 mps 656 mmHg 95%
    06:00 +10°C° 0 mm 0 mps 656 mmHg 89%
    07:00 +13°C° 0 mm 1 mps 657 mmHg 83%
    08:00 +13°C° 0 mm 0 mps 658 mmHg 75%
    09:00 +16°C° 0 mm 1 mps 658 mmHg 66%
    10:00 +19°C° 0 mm 1 mps 659 mmHg 56%
    11:00 +22°C° 0 mm 1 mps 659 mmHg 47%
    12:00 +22°C° 0 mm 1 mps 658 mmHg 44%
    13:00 +23°C° 0 mm 2 mps 658 mmHg 42%
    14:00 +23°C° 0 mm 2 mps 657 mmHg 39%
    15:00 +20°C° 0 mm 2 mps 656 mmHg 44%
    16:00 +19°C° 0 mm 2 mps 656 mmHg 49%
    17:00 +18°C° 0 mm 1 mps 656 mmHg 54%
    18:00 +16°C° 0 mm 1 mps 656 mmHg 61%
    19:00 +14°C° 0 mm 1 mps 656 mmHg 68%
    20:00 +12°C° 0 mm 1 mps 656 mmHg 74%
    21:00 +12°C° 0 mm 1 mps 656 mmHg 76%
    22:00 +11°C° 0 mm 1 mps 656 mmHg 77%
    23:00 +11°C° 0 mm 1 mps 656 mmHg 79%

    Tomorrow, 6 June, Saturday

    Time Temperature Precipitation Wind Pressure Humidity
    00:00 +10°C° 0 mm 1 mps 656 mmHg 81%
    01:00 +10°C° 0 mm 1 mps 656 mmHg 83%
    02:00 +8°C° 0 mm 0 mps 656 mmHg 85%
    03:00 +8°C° 0 mm 0 mps 655 mmHg 87%
    04:00 +8°C° 0 mm 0 mps 655 mmHg 89%
    05:00 +7°C° 0 mm 0 mps 655 mmHg 91%
    06:00 +9°C° 0 mm 0 mps 656 mmHg 85%
    07:00 +11°C° 0 mm 0 mps 657 mmHg 78%
    08:00 +12°C° 0 mm 0 mps 658 mmHg 72%
    09:00 +15°C° 0 mm 1 mps 658 mmHg 62%
    10:00 +19°C° 0 mm 1 mps 659 mmHg 52%
    11:00 +21°C° 0 mm 1 mps 659 mmHg 43%
    12:00 +21°C° 0 mm 1 mps 658 mmHg 40%
    13:00 +21°C° 0 mm 2 mps 658 mmHg 37%
    14:00 +21°C° 0 mm 2 mps 657 mmHg 34%
    15:00 +20°C° 0 mm 2 mps 657 mmHg 41%
    16:00 +18°C° 0 mm 2 mps 657 mmHg 47%
    17:00 +17°C° 0 mm 2 mps 656 mmHg 54%
    18:00 +15°C° 0 mm 1 mps 656 mmHg 62%
    19:00 +13°C° 0 mm 1 mps 656 mmHg 71%
    20:00 +10°C° 0 mm 0 mps 657 mmHg 80%
    21:00 +9°C° 0 mm 0 mps 656 mmHg 83%
    22:00 +9°C° 0 mm 0 mps 656 mmHg 87%
    23:00 +8°C° 0 mm 0 mps 656 mmHg 91%

    Day after tomorrow, 7 June, Sunday

    Time Temperature Precipitation Wind Pressure Humidity
    00:00 +9°C° 0 mm 1 mps 656 mmHg 92%
    01:00 +9°C° 0 mm 1 mps 655 mmHg 94%
    02:00 +8°C° 0 mm 1 mps 655 mmHg 95%
    03:00 +9°C° 0 mm 1 mps 655 mmHg 95%
    04:00 +9°C° 0 mm 1 mps 655 mmHg 95%
    05:00 +9°C° 0 mm 1 mps 655 mmHg 95%
    06:00 +10°C° 0 mm 1 mps 656 mmHg 92%
    07:00 +11°C° 0 mm 1 mps 656 mmHg 89%
    08:00 +11°C° 0 mm 1 mps 657 mmHg 85%
    09:00 +13°C° 0 mm 1 mps 657 mmHg 78%
    10:00 +14°C° 0 mm 1 mps 657 mmHg 70%
    11:00 +16°C° 0 mm 1 mps 657 mmHg 63%
    12:00 +18°C° 0 mm 1 mps 657 mmHg 56%
    13:00 +20°C° 0 mm 1 mps 657 mmHg 49%
    14:00 +22°C° 0 mm 1 mps 657 mmHg 42%
    15:00 +20°C° 0 mm 1 mps 657 mmHg 46%
    16:00 +19°C° 0 mm 1 mps 656 mmHg 50%
    17:00 +16°C° 0 mm 1 mps 656 mmHg 54%
    18:00 +14°C° 0 mm 1 mps 656 mmHg 61%
    19:00 +11°C° 0 mm 0 mps 656 mmHg 68%
    20:00 +10°C° 0 mm 0 mps 656 mmHg 76%
    21:00 +9°C° 0 mm 0 mps 655 mmHg 78%
    22:00 +9°C° 0 mm 0 mps 655 mmHg 81%
    23:00 +8°C° 0 mm 0 mps 655 mmHg 83%

    8 June, Monday

    Time Temperature Precipitation Wind Pressure Humidity
    00:00 +8°C° 0 mm 0 mps 655 mmHg 84%
    01:00 +8°C° 0 mm 1 mps 655 mmHg 86%
    02:00 +8°C° 0 mm 1 mps 654 mmHg 87%
    03:00 +8°C° 0 mm 1 mps 654 mmHg 88%
    04:00 +8°C° 0 mm 1 mps 654 mmHg 89%
    05:00 +7°C° 0 mm 1 mps 654 mmHg 90%
    06:00 +8°C° 0 mm 0 mps 655 mmHg 82%
    07:00 +10°C° 0 mm 0 mps 655 mmHg 75%
    08:00 +12°C° 0 mm 0 mps 656 mmHg 68%
    09:00 +16°C° 0 mm 1 mps 657 mmHg 59%
    10:00 +19°C° 0 mm 1 mps 657 mmHg 49%
    11:00 +22°C° 0 mm 1 mps 658 mmHg 40%
    12:00 +22°C° 0 mm 1 mps 657 mmHg 40%
    13:00 +23°C° 0 mm 2 mps 657 mmHg 39%
    14:00 +23°C° 0 mm 2 mps 656 mmHg 39%
    15:00 +20°C° 0 mm 2 mps 656 mmHg 44%
    16:00 +19°C° 0 mm 2 mps 656 mmHg 50%
    17:00 +19°C° 0 mm 1 mps 655 mmHg 56%
    18:00 +16°C° 0 mm 1 mps 655 mmHg 64%
    19:00 +14°C° 0 mm 1 mps 655 mmHg 73%
    20:00 +12°C° 0 mm 1 mps 655 mmHg 82%
    21:00 +12°C° 0 mm 1 mps 655 mmHg 83%
    22:00 +11°C° 0 mm 1 mps 655 mmHg 85%
    23:00 +11°C° 0 mm 1 mps 655 mmHg 86%

    9 June, Tuesday

    Time Temperature Precipitation Wind Pressure Humidity
    00:00 +11°C° 0 mm 1 mps 655 mmHg 87%
    01:00 +9°C° 0 mm 0 mps 655 mmHg 89%
    02:00 +9°C° 0 mm 0 mps 654 mmHg 90%
    03:00 +9°C° 0 mm 0 mps 654 mmHg 90%
    04:00 +8°C° 0 mm 0 mps 654 mmHg 89%
    05:00 +8°C° 0 mm 0 mps 654 mmHg 89%
    06:00 +10°C° 0 mm 0 mps 655 mmHg 81%
    07:00 +12°C° 0 mm 0 mps 656 mmHg 74%
    08:00 +14°C° 0 mm 0 mps 657 mmHg 66%
    09:00 +18°C° 0 mm 1 mps 657 mmHg 57%
    10:00 +20°C° 0 mm 1 mps 657 mmHg 48%
    11:00 +23°C° 0 mm 2 mps 658 mmHg 39%
    12:00 +23°C° 0 mm 2 mps 657 mmHg 39%
    13:00 +23°C° 0 mm 2 mps 657 mmHg 39%
    14:00 +22°C° 0 mm 3 mps 656 mmHg 39%
    15:00 +21°C° 0 mm 3 mps 656 mmHg 45%
    16:00 +19°C° 0 mm 2 mps 656 mmHg 51%
    17:00 +18°C° 0 mm 2 mps 655 mmHg 57%
    18:00 +16°C° 0 mm 2 mps 655 mmHg 68%
    19:00 +14°C° 0 mm 2 mps 655 mmHg 79%
    20:00 +12°C° 0 mm 1 mps 655 mmHg 90%
    21:00 +12°C° 0 mm 1 mps 655 mmHg 91%
    22:00 +12°C° 0 mm 1 mps 655 mmHg 93%
    23:00 +11°C° 0 mm 1 mps 655 mmHg 94%

    10 June, Wednesday

    Time Temperature Precipitation Wind Pressure Humidity
    00:00 +11°C° 0 mm 1 mps 655 mmHg 94%
    01:00 +11°C° 0 mm 1 mps 654 mmHg 95%
    02:00 +10°C° 0 mm 1 mps 654 mmHg 95%
    03:00 +10°C° 0 mm 1 mps 654 mmHg 96%
    04:00 +10°C° 0 mm 1 mps 654 mmHg 96%
    05:00 +10°C° 0 mm 1 mps 654 mmHg 97%
    06:00 +12°C° 0 mm 1 mps 655 mmHg 91%
    07:00 +13°C° 0 mm 1 mps 656 mmHg 86%
    08:00 +15°C° 0 mm 1 mps 657 mmHg 81%
    09:00 +17°C° 0 mm 2 mps 657 mmHg 69%
    10:00 +19°C° 0 mm 2 mps 657 mmHg 57%
    11:00 +21°C° 0 mm 2 mps 658 mmHg 45%
    12:00 +22°C° 0 mm 3 mps 657 mmHg 43%
    13:00 +22°C° 0 mm 3 mps 656 mmHg 42%
    14:00 +24°C° 0 mm 3 mps 656 mmHg 40%
    15:00 +21°C° 0 mm 3 mps 655 mmHg 45%
    16:00 +20°C° 0 mm 2 mps 655 mmHg 50%
    17:00 +19°C° 0 mm 2 mps 654 mmHg 54%
    18:00 +17°C° 0 mm 2 mps 654 mmHg 65%
    19:00 +15°C° 0 mm 2 mps 654 mmHg 76%
    20:00 +13°C° 0 mm 2 mps 654 mmHg 86%
    21:00 +13°C° 0 mm 1 mps 654 mmHg 89%
    22:00 +13°C° 0 mm 1 mps 654 mmHg 92%
    23:00 +12°C° 0 mm 1 mps 654 mmHg 95%
    Show more